STARLINK-2042 (47658 NORAD) Tracking and Keplerian Element Data

This shows tracking and keplerian element data for the satellite.

Feedback or suggestion? Click here.




ElementValue
Catalog47658
NameSTARLINK-2042
Epoch Orbit180
Epoch Day99.91667824
Epoch Year2021
RAAN208.6562
Inclination53.0546
Eccentricity0.0001601
Argument of Perigee76.9491
Mean Anonmoly129.0152
Mean Motion15.06416672
Decay Rate-0.00030905
L11 47658U 21012AQ 21099.91667824 -.00030905 00000-0 -20639-2 0 9991
L22 47658 53.0546 208.6562 0001601 76.9491 129.0152 15.06416672 1805

Live tracking and technical data element details for STARLINK-2042 (NORAD 47658). STARLINK-2042 can be tracked NOW for your location showing map with azimuth and elevation plus other details from your city location.

Track the satellite on the map from your city or location and see movement details for azimuth, elevation, latitude, longitude, range, height, and movement on the map or in text.







IsCatalogInMostPopularTable: catalog: 47658, numindb: 22
Update: records affected: 1



GetName: 47658 STARLINK-2042

Hit Count: updated at: Sat, 10 Apr 2021 19:40:06 GMT